Location: Luz Observatory
(34.5000°N, 117.2833°W)
Time: 13:41:26
(UTC-08:00)

Cosmos 1484 Rocket - Visible Passes

Search period start: 25 February 2018 00:00
Search period end: 07 March 2018 00:00
Orbit: 507 x 561 km, 97.3° (Epoch: 24 February)

Date Brightness Start Highest point End Pass type
(mag) Time Alt. Az. Time Alt. Az. Time Alt. Az.
25 Feb 2.8 05:53:03 10° N 05:57:04 85° WNW 06:01:04 10° SSW visible
25 Feb 6.2 18:08:07 10° SW 18:10:25 16° W 18:12:46 10° NW visible
26 Feb 3.2 05:43:56 10° NNE 05:47:57 73° E 05:51:57 10° S visible
27 Feb 3.7 05:34:52 10° NNE 05:38:49 55° E 05:42:45 10° S visible
28 Feb 4.4 05:25:52 10° NNE 05:29:40 41° E 05:33:28 10° S visible
01 Mar 4.9 05:16:54 10° NNE 05:20:32 31° E 05:24:07 10° SSE visible
02 Mar 5.4 05:08:02 10° NE 05:11:22 24° E 05:14:39 10° SSE visible
03 Mar 5.9 04:59:17 10° NE 05:02:11 19° E 05:05:04 10° SE visible
04 Mar 6.2 04:50:41 10° ENE 04:53:00 15° E 04:55:17 10° SE visible
05 Mar 6.4 04:42:31 10° ENE 04:43:47 11° E 04:45:04 10° ESE visible
06 Mar 6.9 18:21:42 10° WSW 18:22:42 11° W 18:23:42 10° WNW visible
